Weather History for Willmar, MN

Change the Weather History Date:

Tuesday, April 30, 2013

  Actual Average (KLJF) Record (KLJF)
Temperature  
Mean Temperature 60 °F -  
Max Temperature 66 °F 62 °F 87 °F (1968)
Min Temperature 51 °F 39 °F 23 °F (1966)
Degree Days  
Heating Degree Days 6    
Growing Degree Days 10 (Base 50)    
Moisture  
Dew Point 38 °F    
Average Humidity 46    
Maximum Humidity 72    
Minimum Humidity 18    
Precipitation  
Precipitation 0.00 in - - ()
Sea Level Pressure  
Sea Level Pressure 29.65 in    
Wind  
Wind Speed 17 mph (WNW)    
Max Wind Speed 29 mph    
Max Gust Speed 34 mph    
Visibility 10 miles    
Events Thunderstorm    
Averages and records for this station are not official NWS values.
T = Trace of Precipitation, MM = Missing Value Source: NWS Daily Summary

Daily Weather History Graph

Daily Weather History Graph

Search for Another Location

Airport:

Trip Planner

Search our weather history database for the weather conditions in past years. The results will help you decide how hot, cold, wet, or windy it might be!

Date:

Astronomy

Apr. 30, 2013 Rise Set
Actual Time 6:10 AM CDT 8:25 PM CDT
Civil Twilight 5:38 AM CDT 8:58 PM CDT
Nautical Twilight 4:58 AM CDT 9:38 PM CDT
Astronomical Twilight 4:13 AM CDT 10:23 PM CDT
Moon 12:52 AM CDT (4/30) 10:37 AM CDT (4/30)
Length of Visible Light 15h 19m
Length of Day
14h 14m
Waning Gibbous, 70% of the Moon is Illuminated
Apr 30
Waning Gibbous
May 2
Last Quarter
May 9
New
May 17
First Quarter
May 24
Full

Hourly Weather History & Observations

Time (CDT) Temp. Dew Point Humidity Pressure Visibility Wind Dir Wind Speed Gust Speed Precip Events Conditions
12:16 AM 64.4 °F 48.2 °F 56% 29.47 in 10.0 mi SE 12.7 mph - N/A   Scattered Clouds
12:35 AM 64.4 °F 48.2 °F 56% 29.47 in 10.0 mi ESE 13.8 mph - N/A   Scattered Clouds
12:55 AM 64.4 °F 50.0 °F 59% 29.45 in 10.0 mi ESE 13.8 mph - N/A   Scattered Clouds
1:16 AM 64.4 °F 51.8 °F 64% 29.44 in 10.0 mi ESE 15.0 mph - N/A   Mostly Cloudy
1:35 AM 64.4 °F 51.8 °F 64% 29.43 in 10.0 mi SE 15.0 mph - N/A   Overcast
1:55 AM 64.4 °F 51.8 °F 64% 29.42 in 10.0 mi SE 18.4 mph - N/A   Mostly Cloudy
2:16 AM 64.4 °F 53.6 °F 68% 29.40 in 10.0 mi SE 17.3 mph - N/A   Scattered Clouds
2:35 AM 62.6 °F 53.6 °F 72% 29.40 in 10.0 mi SE 15.0 mph - N/A   Clear
2:55 AM 62.6 °F 53.6 °F 72% 29.39 in 10.0 mi SE 16.1 mph - N/A   Clear
3:16 AM 64.4 °F 53.6 °F 68% 29.38 in 10.0 mi SE 17.3 mph - N/A   Clear
3:35 AM 64.4 °F 53.6 °F 68% 29.37 in 10.0 mi SSE 17.3 mph 21.9 mph N/A Thunderstorm Clear
3:55 AM 64.4 °F 53.6 °F 68% 29.36 in 10.0 mi SSE 17.3 mph - N/A   Clear
4:16 AM 64.4 °F 53.6 °F 68% 29.35 in 10.0 mi SSE 15.0 mph - N/A   Clear
4:35 AM 64.4 °F 53.6 °F 68% 29.34 in 10.0 mi SSE 18.4 mph - N/A   Clear
4:55 AM 64.4 °F 53.6 °F 68% 29.34 in 10.0 mi SSE 17.3 mph 23.0 mph N/A   Clear
5:16 AM 64.4 °F 53.6 °F 68% 29.35 in 10.0 mi South 9.2 mph 18.4 mph N/A   Clear
5:35 AM 66.2 °F 53.6 °F 64% 29.36 in 10.0 mi SSW 10.4 mph 18.4 mph N/A   Clear
5:55 AM 66.2 °F 53.6 °F 64% 29.37 in 10.0 mi SSW 13.8 mph 20.7 mph N/A   Clear
6:16 AM 66.2 °F 51.8 °F 60% 29.39 in 10.0 mi SW 20.7 mph 26.5 mph N/A   Clear
6:35 AM 66.2 °F 48.2 °F 52% 29.41 in 10.0 mi WSW 23.0 mph 32.2 mph N/A   Clear
6:55 AM 64.4 °F 46.4 °F 52% 29.43 in 10.0 mi West 24.2 mph 32.2 mph N/A   Clear
7:16 AM 59.0 °F 46.4 °F 63% 29.46 in 10.0 mi WNW 23.0 mph 28.8 mph N/A   Clear
7:35 AM 55.4 °F 44.6 °F 67% 29.48 in 10.0 mi WNW 17.3 mph 26.5 mph N/A   Clear
7:55 AM 53.6 °F 44.6 °F 72% 29.49 in 10.0 mi WNW 19.6 mph 27.6 mph N/A   Clear
8:16 AM 55.4 °F 44.6 °F 67% 29.51 in 10.0 mi WNW 19.6 mph 26.5 mph N/A   Clear
8:35 AM 55.4 °F 44.6 °F 67% 29.53 in 10.0 mi WNW 23.0 mph 28.8 mph N/A   Clear
8:55 AM 55.4 °F 44.6 °F 67% 29.55 in 10.0 mi WNW 26.5 mph 33.4 mph N/A   Clear
9:16 AM 57.2 °F 46.4 °F 67% 29.56 in 10.0 mi NW 28.8 mph 33.4 mph N/A   Clear
9:35 AM 57.2 °F 44.6 °F 63% 29.58 in 10.0 mi NW 28.8 mph 34.5 mph N/A   Clear
9:55 AM 60.8 °F 44.6 °F 55% 29.59 in 10.0 mi WNW 23.0 mph 31.1 mph N/A   Clear
10:16 AM 60.8 °F 44.6 °F 55% 29.60 in 10.0 mi WNW 17.3 mph 27.6 mph N/A   Clear
10:35 AM 60.8 °F 42.8 °F 52% 29.62 in 10.0 mi WNW 18.4 mph 27.6 mph N/A   Clear
10:55 AM 62.6 °F 42.8 °F 48% 29.62 in 10.0 mi WNW 21.9 mph 28.8 mph N/A   Clear
11:16 AM 62.6 °F 42.8 °F 48% 29.63 in 10.0 mi WNW 23.0 mph 28.8 mph N/A   Clear
11:35 AM 62.6 °F 39.2 °F 42% 29.65 in 10.0 mi WNW 25.3 mph 31.1 mph N/A   Clear
11:55 AM 64.4 °F 37.4 °F 37% 29.67 in 10.0 mi NW 20.7 mph 27.6 mph N/A   Clear
12:15 PM 64.4 °F 35.6 °F 34% 29.68 in 10.0 mi WNW 21.9 mph 26.5 mph N/A   Clear
12:35 PM 66.2 °F 33.8 °F 30% 29.69 in 10.0 mi WNW 19.6 mph 28.8 mph N/A   Clear
12:55 PM 66.2 °F 30.2 °F 26% 29.69 in 10.0 mi NW 20.7 mph 26.5 mph N/A   Clear
1:15 PM 66.2 °F 30.2 °F 26% 29.69 in 10.0 mi WNW 19.6 mph 27.6 mph N/A   Clear
1:35 PM 66.2 °F 26.6 °F 23% 29.71 in 10.0 mi WNW 18.4 mph 26.5 mph N/A   Clear
1:55 PM 66.2 °F 24.8 °F 21% 29.71 in 10.0 mi WNW 20.7 mph 26.5 mph N/A   Clear
2:15 PM 66.2 °F 24.8 °F 21% 29.71 in 10.0 mi West 17.3 mph 24.2 mph N/A   Clear
2:35 PM 64.4 °F 21.2 °F 19% 29.72 in 10.0 mi WNW 15.0 mph 27.6 mph N/A   Clear
2:55 PM 64.4 °F 23.0 °F 21% 29.74 in 10.0 mi WNW 18.4 mph 25.3 mph N/A   Clear
3:15 PM 66.2 °F 23.0 °F 19% 29.75 in 10.0 mi WNW 23.0 mph 26.5 mph N/A   Clear
3:35 PM 64.4 °F 23.0 °F 21% 29.76 in 10.0 mi West 20.7 mph 29.9 mph N/A   Clear
3:55 PM 66.2 °F 21.2 °F 18% 29.76 in 10.0 mi WNW 21.9 mph - N/A   Clear
4:15 PM 64.4 °F 19.4 °F 18% 29.78 in 10.0 mi West 20.7 mph 27.6 mph N/A   Clear
4:35 PM 64.4 °F 24.8 °F 22% 29.80 in 10.0 mi WNW 16.1 mph - N/A   Clear
4:55 PM 64.4 °F 23.0 °F 21% 29.82 in 10.0 mi WNW 12.7 mph - N/A   Clear
5:15 PM 62.6 °F 26.6 °F 26% 29.83 in 10.0 mi WNW 12.7 mph - N/A   Clear
5:35 PM 62.6 °F 26.6 °F 26% 29.84 in 10.0 mi West 10.4 mph - N/A   Clear
5:55 PM 62.6 °F 26.6 °F 26% 29.85 in 10.0 mi WNW 11.5 mph - N/A   Clear
6:15 PM 62.6 °F 26.6 °F 26% 29.86 in 10.0 mi WNW 11.5 mph - N/A   Clear
6:35 PM 62.6 °F 26.6 °F 26% 29.88 in 10.0 mi WNW 10.4 mph - N/A   Clear
6:55 PM 62.6 °F 26.6 °F 26% 29.89 in 10.0 mi WNW 15.0 mph - N/A   Clear
7:15 PM 60.8 °F 28.4 °F 29% 29.89 in 10.0 mi WNW 11.5 mph - N/A   Clear
7:35 PM 60.8 °F 30.2 °F 31% 29.89 in 10.0 mi WNW 9.2 mph - N/A   Clear
7:55 PM 60.8 °F 30.2 °F 31% 29.90 in 10.0 mi WNW 10.4 mph - N/A   Clear
8:15 PM 59.0 °F 28.4 °F 31% 29.91 in 10.0 mi WNW 13.8 mph - N/A   Clear
8:35 PM 57.2 °F 28.4 °F 33% 29.91 in 10.0 mi WNW 12.7 mph - N/A   Clear
8:55 PM 57.2 °F 30.2 °F 36% 29.91 in 10.0 mi WNW 11.5 mph - N/A   Clear
9:15 PM 55.4 °F 30.2 °F 38% 29.92 in 10.0 mi WNW 11.5 mph - N/A   Scattered Clouds
9:35 PM 55.4 °F 30.2 °F 38% 29.94 in 10.0 mi NW 15.0 mph - N/A   Scattered Clouds
10:15 PM 55.4 °F 33.8 °F 44% 29.96 in 10.0 mi NW 15.0 mph 23.0 mph N/A   Scattered Clouds
10:35 PM 53.6 °F 33.8 °F 47% 29.97 in 10.0 mi NNW 13.8 mph - N/A   Scattered Clouds
10:56 PM 53.6 °F 32.0 °F 44% 29.98 in 10.0 mi NW 16.1 mph - N/A   Mostly Cloudy
11:15 PM 53.6 °F 32.0 °F 44% 30.00 in 10.0 mi NW 18.4 mph - N/A   Scattered Clouds
11:35 PM 53.6 °F 33.8 °F 47% 30.01 in 10.0 mi NNW 16.1 mph - N/A   Clear
11:55 PM 51.8 °F 32.0 °F 47% 30.02 in 10.0 mi NNW 19.6 mph 26.5 mph N/A   Scattered Clouds